2024-149AB

Last updated on Mon Sep 16 2024 00:02:03 GMT+0000 (Coordinated Universal Time)

1 60493U 24149AB 24259.49424379 .00019231 00000+0 93213-3 0 9992 2 60493 97.4421 334.5961 0005267 26.7299 333.4206 15.18556413 4506
UTC large
Height (km)
Speed (km/s)
/
Latitude / Longitude
Inclination (degrees)
Orbital Period (minutes)
Azimuth
Elevation
Range (km)
Doppler Factor

Next 0 passes for location: London (51.5072 / 0.1276)

Sorry there are no passes over London.